ONEWEB-0121 (47267 NORAD) Tracking and Keplerian Element Data

This shows tracking and keplerian element data for the satellite.

Feedback or suggestion? Click here.




ElementValue
Catalog47267
NameONEWEB-0121
Epoch Orbit1696
Epoch Day106.25002315
Epoch Year2021
RAAN5.7926
Inclination87.9597
Eccentricity0.0011098
Argument of Perigee261.2547
Mean Anonmoly97.5667
Mean Motion13.27980077
Decay Rate1.3E-07
L11 47267U 20100K 21106.25002315 .00000013 00000-0 00000+0 0 9990
L22 47267 87.9597 5.7926 0011098 261.2547 97.5667 13.27980077 16964

Live tracking and technical data element details for ONEWEB-0121 (NORAD 47267). ONEWEB-0121 can be tracked NOW for your location showing map with azimuth and elevation plus other details from your city location.

Track the satellite on the map from your city or location and see movement details for azimuth, elevation, latitude, longitude, range, height, and movement on the map or in text.







IsCatalogInMostPopularTable: catalog: 47267, numindb: 30
Update: records affected: 1



GetName: 47267 ONEWEB-0121

Hit Count: updated at: Fri, 16 Apr 2021 10:19:41 GMT